Flag for Romania Weather past 2 weeks in Iasi, Romania

Now
66 °F

Mild.


Feels Like: 66 °F
Forecast: 61 / 90 °F
Wind: 7 mph from East

Location: Iasi Airport

Current Time: Aug 3, 2015 at 4:25:03 AM

Latest Report: Aug 3, 2015 at 4:00 AM


Visibility: N/A

Pressure: 30.18 "Hg

Humidity: 56%

Dew point: 50 °F

Location of IasiLocation

Historic Weather in Iasi — Graph

°F

Iasi temperature yesterday

Maximum temperature yesterday: 84 °F (at 4:00 PM)
Minimum temperature yesterday: 55 °F (at 6:00 AM)
Average temperature yesterday: 73 °F

Past Weeks' High & Low Weather Summary

 TemperatureHumidityPressure
High95 °F (Jul 23, 3:30 PM)100% (Jul 30, 8:30 PM)30.21 "Hg (Jul 30, 8:30 PM)
Low55 °F (Aug 2, 6:00 AM)27% (Aug 2, 4:00 PM)29.65 "Hg (Jul 26, 4:00 PM)
Average78 °F56%29.91 "Hg
* Reported Jul 19 3:00 AM — Aug 3 3:00 AM, Iasi, Weather by CustomWeather, © 2015

Note: Actual official high and low records may vary slightly from our data, if they occured in-between our weather recording intervals... More about our weather records

Advertising

Iasi weather history for previous 24 hours

 ConditionsComfort  
Time TempWeatherWind HumidityBarometerVisibility
3:00 AM
Mon, Aug 3
68 °FClear.9 mph53%30.18 "Hg10 mi
2:00 AM68 °FClear.6 mph53%30.18 "Hg10 mi
1:00 AM70 °FClear.8 mph50%30.18 "Hg10 mi
12:00 AM70 °FClear.8 mph53%30.18 "Hg10 mi
11:00 PM
Sun, Aug 2
72 °FClear.7 mph47%30.18 "Hg10 mi
10:00 PM73 °FClear.7 mph44%30.18 "Hg10 mi
9:00 PM77 °FSunny.6 mph39%30.15 "Hg10 mi
8:30 PM79 °FSunny.6 mph37%30.15 "Hg10 mi
8:00 PM81 °FSunny.6 mph34%30.15 "Hg10 mi
7:30 PM82 °FSunny.7 mph28%30.15 "Hg10 mi
7:00 PM82 °FSunny.10 mph30%30.15 "Hg10 mi
6:30 PM82 °FSunny.10 mph30%30.15 "Hg10 mi
6:00 PM82 °FSunny.10 mph30%30.18 "Hg10 mi
5:30 PM84 °FSunny.9 mph29%30.18 "Hg10 mi
5:00 PM84 °FSunny.12 mph27%30.18 "Hg10 mi
4:30 PM84 °FSunny.10 mph29%30.18 "Hg10 mi
4:00 PM84 °FPassing clouds.8 mph27%30.18 "HgN/A
3:30 PM82 °FSunny.12 mph30%30.18 "Hg10 mi
3:00 PM82 °FPassing clouds.9 mph30%30.18 "HgN/A
2:30 PM81 °FPassing clouds.7 mph34%30.18 "HgN/A
2:00 PM81 °FSunny.9 mph34%30.21 "Hg10 mi
1:30 PM81 °FPassing clouds.9 mph34%30.21 "HgN/A
1:00 PM79 °FSunny.8 mph34%30.21 "Hg10 mi
12:30 PM79 °FSunny.9 mph34%30.21 "Hg10 mi
12:00 PM79 °FPassing clouds.12 mph34%30.21 "HgN/A
11:30 AM77 °FSunny.12 mph39%30.21 "Hg10 mi
11:00 AM77 °FSunny.10 mph42%30.21 "Hg10 mi
10:30 AM77 °FSunny.8 mph44%30.21 "Hg10 mi
10:00 AM73 °FSunny.7 mph53%30.21 "Hg10 mi
9:30 AM72 °FSunny.7 mph50%30.21 "Hg10 mi
9:00 AM70 °FPassing clouds.6 mph60%30.21 "HgN/A
8:30 AM66 °FSunny.5 mph68%30.21 "Hg10 mi
8:00 AM64 °FSunny.5 mph68%30.21 "Hg10 mi
7:30 AM64 °FSunny.2 mph68%30.21 "Hg10 mi
7:00 AM59 °FSunny.No wind88%30.21 "Hg10 mi
6:30 AM57 °FClear.1 mph82%30.21 "Hg10 mi
6:00 AM55 °FClear.No wind88%30.21 "Hg10 mi
5:30 AM57 °FClear.No wind82%30.18 "Hg10 mi
5:00 AM59 °FPassing clouds.2 mph77%30.18 "HgN/A
4:00 AM59 °FClear.1 mph77%30.18 "Hg10 mi
Weather by CustomWeather, © 2015

See weather overviewHow to use our weather pages